Weather History for Keokuk, IA

Change the Weather History Date:

Saturday, October 13, 2012

  Actual Average Record
Temperature  
Mean Temperature 66 °F -  
Max Temperature 75 °F 66 °F 88 °F (1975)
Min Temperature 57 °F 46 °F 29 °F (1979)
Cooling Degree Days 1    
Growing Degree Days 16 (Base 50)    
Moisture  
Dew Point 56 °F    
Average Humidity 72    
Maximum Humidity 83    
Minimum Humidity 55    
Precipitation  
Precipitation 1.61 in - - ()
Sea Level Pressure  
Sea Level Pressure 29.92 in    
Wind  
Wind Speed 8 mph (South)    
Max Wind Speed 20 mph    
Max Gust Speed 34 mph    
Visibility 8 miles    
Events Rain    
Averages and records for this station are not official NWS values.
T = Trace of Precipitation, MM = Missing Value Source: NWS Daily Summary

Daily Weather History Graph

Daily Weather History Graph

Search for Another Location

Airport:

Trip Planner

Search our weather history database for the weather conditions in past years. The results will help you decide how hot, cold, wet, or windy it might be!

Date:

Astronomy

Oct. 13, 2012 Rise Set
Actual Time 7:15 AM CDT 6:27 PM CDT
Civil Twilight 6:47 AM CDT 6:55 PM CDT
Nautical Twilight 6:15 AM CDT 7:26 PM CDT
Astronomical Twilight 5:44 AM CDT 7:58 PM CDT
Moon 5:04 AM CDT (10/13) 5:12 PM CDT (10/13)
Length of Visible Light 12h 07m
Length of Day
11h 12m
Waning Crescent, 5% of the Moon is Illuminated
Oct 13
Waning Crescent
Oct 15
New
Oct 21
First Quarter
Oct 29
Full
Nov 6
Last Quarter

Hourly Weather History & Observations

Time (CDT) Temp. Dew Point Humidity Pressure Visibility Wind Dir Wind Speed Gust Speed Precip Events Conditions
12:55 AM 60.8 °F 44.6 °F 55% 30.14 in 10.0 mi SE 8.1 mph - N/A   Scattered Clouds
1:35 AM 57.2 °F 46.4 °F 67% 30.12 in 10.0 mi SE 4.6 mph - N/A   Clear
1:55 AM 57.2 °F 46.4 °F 67% 30.10 in 10.0 mi ESE 5.8 mph - N/A   Clear
2:15 AM 57.2 °F 46.4 °F 67% 30.10 in 10.0 mi SE 4.6 mph - N/A   Scattered Clouds
2:35 AM 57.2 °F 46.4 °F 67% 30.07 in 10.0 mi ESE 5.8 mph - N/A   Scattered Clouds
2:55 AM 57.2 °F 46.4 °F 67% 30.06 in 10.0 mi SE 5.8 mph - N/A   Mostly Cloudy
3:15 AM 59.0 °F 46.4 °F 63% 30.05 in 10.0 mi SE 6.9 mph - N/A   Overcast
3:35 AM 59.0 °F 48.2 °F 67% 30.06 in 10.0 mi SSE 8.1 mph - N/A   Overcast
3:55 AM 60.8 °F 48.2 °F 63% 30.04 in 10.0 mi SSE 6.9 mph - N/A   Overcast
4:15 AM 60.8 °F 48.2 °F 63% 30.03 in 10.0 mi SSE 8.1 mph - N/A   Overcast
4:35 AM 60.8 °F 48.2 °F 63% 30.03 in 10.0 mi SSE 6.9 mph - N/A   Scattered Clouds
4:55 AM 60.8 °F 50.0 °F 68% 30.03 in 10.0 mi South 10.4 mph - N/A   Mostly Cloudy
5:15 AM 60.8 °F 50.0 °F 68% 30.05 in 10.0 mi South 8.1 mph - N/A Rain Light Rain
5:35 AM 59.0 °F 50.0 °F 72% 30.01 in 7.0 mi SSE 8.1 mph - N/A Rain Light Rain
5:55 AM 59.0 °F 50.0 °F 72% 30.03 in 10.0 mi South 8.1 mph - 0.01 in Rain Light Rain
6:15 AM 59.0 °F 51.8 °F 77% 30.02 in 7.0 mi SSE 5.8 mph - 0.03 in Rain Light Rain
6:35 AM 59.0 °F 51.8 °F 77% 30.01 in 5.0 mi South 8.1 mph - 0.04 in Rain Rain
6:55 AM 59.0 °F 51.8 °F 77% 30.01 in 7.0 mi South 8.1 mph - 0.07 in Rain Rain
7:15 AM 59.0 °F 51.8 °F 77% 29.99 in 7.0 mi SSE 5.8 mph - 0.03 in Rain Rain
7:35 AM 59.0 °F 51.8 °F 77% 29.98 in 5.0 mi SSE 9.2 mph - 0.06 in Rain Rain
7:55 AM 59.0 °F 51.8 °F 77% 29.98 in 5.0 mi South 4.6 mph 16.1 mph 0.09 in Rain Light Rain
8:15 AM 60.8 °F 51.8 °F 72% 30.00 in 7.0 mi South 10.4 mph - 0.02 in Rain Light Rain
8:55 AM 60.8 °F 51.8 °F 72% 30.01 in 4.0 mi Calm Calm - 0.30 in Rain Heavy Rain
9:35 AM 60.8 °F 53.6 °F 77% 29.98 in 10.0 mi South 8.1 mph - 0.17 in Rain Light Rain
9:55 AM 62.6 °F 53.6 °F 72% 29.99 in 10.0 mi SSW 5.8 mph - 0.17 in Rain Light Rain
10:15 AM 62.6 °F 53.6 °F 72% 30.01 in 10.0 mi North 6.9 mph - N/A   Overcast
10:35 AM 62.6 °F 53.6 °F 72% 30.00 in 7.0 mi Calm Calm - N/A   Overcast
10:55 AM 60.8 °F 53.6 °F 77% 29.98 in 5.0 mi SE 3.5 mph - N/A   Haze
11:15 AM 62.6 °F 53.6 °F 72% 29.97 in 4.0 mi SSE 4.6 mph - N/A   Haze
11:35 AM 62.6 °F 55.4 °F 77% 29.95 in 2.0 mi SSE 9.2 mph - N/A   Haze
11:55 AM 62.6 °F 55.4 °F 77% 29.94 in 2.0 mi SSE 8.1 mph - N/A   Haze
12:35 PM 64.4 °F 57.2 °F 77% 29.93 in 2.5 mi SSE 5.8 mph - N/A   Haze
12:55 PM 64.4 °F 57.2 °F 77% 29.92 in 3.0 mi South 5.8 mph - N/A   Haze
1:15 PM 66.2 °F 59.0 °F 78% 29.89 in 3.0 mi South 6.9 mph - N/A   Haze
1:35 PM 66.2 °F 60.8 °F 83% 29.88 in 4.0 mi South 10.4 mph - N/A   Haze
1:55 PM 68.0 °F 60.8 °F 78% 29.85 in 5.0 mi South 12.7 mph 17.3 mph N/A   Haze
2:15 PM 69.8 °F 60.8 °F 73% 29.83 in 5.0 mi South 10.4 mph 16.1 mph N/A Rain Light Rain
2:35 PM 69.8 °F 62.6 °F 78% 29.81 in 7.0 mi South 12.7 mph 17.3 mph N/A   Scattered Clouds
2:55 PM 71.6 °F 62.6 °F 73% 29.80 in 7.0 mi South 15.0 mph 20.7 mph N/A   Clear
3:35 PM 75.2 °F 64.4 °F 69% 29.81 in 10.0 mi South 11.5 mph 25.3 mph N/A   Clear
3:55 PM 75.2 °F 64.4 °F 69% 29.81 in 10.0 mi SSW 12.7 mph 23.0 mph N/A   Mostly Cloudy
4:15 PM 75.2 °F 64.4 °F 69% 29.81 in 10.0 mi SSW 12.7 mph 17.3 mph N/A   Overcast
4:35 PM 75.2 °F 64.4 °F 69% 29.79 in 10.0 mi SSW 10.4 mph - N/A   Overcast
4:55 PM 75.2 °F 64.4 °F 69% 29.79 in 10.0 mi SSW 10.4 mph - N/A   Overcast
5:15 PM 73.4 °F 62.6 °F 69% 29.79 in 10.0 mi SSW 8.1 mph - N/A   Scattered Clouds
5:35 PM 73.4 °F 62.6 °F 69% 29.78 in 10.0 mi SSW 10.4 mph - N/A   Clear
5:55 PM 73.4 °F 62.6 °F 69% 29.77 in 10.0 mi South 17.3 mph 25.3 mph N/A   Clear
6:15 PM 73.4 °F 62.6 °F 69% 29.77 in 10.0 mi South 10.4 mph 17.3 mph N/A   Clear
6:35 PM 73.4 °F 62.6 °F 69% 29.80 in 10.0 mi SSW 12.7 mph 19.6 mph N/A   Scattered Clouds
7:35 PM 69.8 °F 62.6 °F 78% 29.84 in 10.0 mi SW 13.8 mph 18.4 mph 0.05 in Rain Rain
7:55 PM 69.8 °F 62.6 °F 78% 29.84 in 10.0 mi SSW 16.1 mph 20.7 mph 0.15 in Rain Heavy Rain
8:35 PM 69.8 °F 60.8 °F 73% 29.80 in 7.0 mi South 19.6 mph 28.8 mph 0.14 in Rain Rain
8:55 PM 69.8 °F 60.8 °F 73% 29.81 in 10.0 mi South 18.4 mph 26.5 mph 0.19 in Rain Rain
9:15 PM 69.8 °F 62.6 °F 78% 29.80 in 7.0 mi South 13.8 mph 34.5 mph 0.05 in Rain Rain
9:35 PM 69.8 °F 62.6 °F 78% 29.79 in 7.0 mi South 12.7 mph 18.4 mph 0.07 in Rain Light Rain
9:55 PM 69.8 °F 60.8 °F 73% 29.78 in 7.0 mi South 9.2 mph 17.3 mph 0.08 in Rain Light Rain
10:15 PM 68.0 °F 60.8 °F 78% 29.77 in 7.0 mi South 10.4 mph 17.3 mph 0.03 in Rain Rain
11:15 PM 68.0 °F 60.8 °F 78% 29.76 in 5.0 mi SSE 12.7 mph 18.4 mph 0.18 in Rain Heavy Rain
11:35 PM 66.2 °F 59.0 °F 78% 29.77 in 3.0 mi South 13.8 mph - 0.52 in Rain Heavy Rain